Content
SEND FEEDBACK

Daily
Averages
Monthly
Summary
United States of America

NEW YORK, NEW YORK


Home > North America > United States > New York
Elevation: 131 feet     Latitude: 40 47N     Longitude: 073 58W

WEATHER
 
SELECT A DAY
Number of Records: 152,321;   Date Range: 11/1/95 - 11/27/14
 
SHARE

PRINT THIS DATA

[ ← Previous Day ]
WEATHER ALMANAC - MARCH 31, 2013
[ Next Day → ]
[ °C ]   °F
Weather ElementAverageHighLow
Temperature48.4 °F54 °F (10:51 am)45 °F (5:51 am)
Dewpoint33.7 °F45 °F (11:28 pm)19.9 °F (1:51 am)
Humidity60.3 %96 % (11:28 pm)32 % (1:51 am)
Barometer29.94 in30.12 in (1:51 am)29.68 in (11:51 pm)
Wind Speed5.8 mph13.8 mph (7:51 pm)
Wind Gust24.2 mph (1:51 pm)
Weather ElementAverage
Visibility7.9 mi
Wind DirectionESE (115.2 °)

Weather ElementTotal
Precipitation0.10 in
Heating Degree Days15.5 (Base 65)
Averaged from 25 records on March 31, 2013
WEATHER CONDITIONS BREAKOUT
WIND DIRECTION BREAKOUT
WEATHER BY HOUR - MARCH 31, 2013
[ °C ]   °F
Local TimeTemperatureDewpointHumidityBarometerVisibilityWind DirectionWind SpeedGust SpeedPrecipitationEventsConditions
1:51 AM48.9 °F19.9 °F32 %30.12 in10.0 miWSW (250°)4.6 mphClear
2:51 AM48.0 °F21.9 °F36 %30.12 in10.0 miVariable3.5 mphClear
3:51 AM46.0 °F23.0 °F40 %30.11 in10.0 miWSW (250°)5.8 mphClear
4:51 AM46.0 °F26.1 °F46 %30.11 in10.0 miVariable5.8 mphClear
5:51 AM45.0 °F26.1 °F48 %30.10 in10.0 miWSW (250°)4.6 mphClear
6:51 AM45.0 °F27.0 °F49 %30.10 in10.0 miWSW (250°)4.6 mphClear
7:51 AM46.0 °F28.0 °F50 %30.10 in10.0 miWSW (250°)4.6 mphClear
8:51 AM50.0 °F28.0 °F43 %30.09 in10.0 miVariable5.8 mphClear
9:51 AM52.0 °F28.0 °F40 %30.08 in10.0 miVariable3.5 mphClear
10:51 AM54.0 °F26.1 °F34 %30.07 in10.0 miSouth (180°)9.2 mphClear
11:51 AM52.0 °F32.0 °F47 %30.05 in10.0 miVariable5.8 mph17.3 mphClear
12:51 PM53.1 °F36.0 °F52 %30.01 in10.0 miSSW (200°)11.5 mph16.1 mphClear
1:51 PM53.1 °F33.1 °F47 %29.99 in10.0 miSSE (160°)11.5 mph24.2 mphOvercast
2:51 PM51.1 °F34.0 °F52 %29.96 in10.0 miCalmOvercast
3:51 PM52.0 °F34.0 °F50 %29.92 in10.0 miVariable4.6 mph17.3 mphOvercast
4:51 PM50.0 °F35.1 °F57 %29.90 in10.0 miSouth (180°)6.9 mph20.7 mphOvercast
5:51 PM48.9 °F37.0 °F64 %29.87 in10.0 miVariable5.8 mph18.4 mphOvercast
6:51 PM46.9 °F39.9 °F77 %29.83 in8.0 miSouth (170°)8.1 mph0.00 inOvercast
7:51 PM46.9 °F41.0 °F80 %29.78 in4.0 miSE (140°)13.8 mph20.7 mph0.00 inRainRain
8:51 PM45.0 °F43.0 °F93 %29.75 in3.0 miSSE (150°)11.5 mph20.7 mph0.04 inRainLight Rain
9:51 PM46.0 °F44.1 °F93 %29.72 in4.0 miVariable5.8 mph0.02 inRainLight Rain
10:51 PM46.0 °F44.1 °F93 %29.70 in4.0 miSSE (150°)3.5 mph0.01 inRainLight Rain
11:28 PM46.0 °F45.0 °F96 %29.69 in2.0 miCalm0.01 inOvercast
11:41 PM46.0 °F45.0 °F96 %29.70 in1.5 miCalm0.01 inOvercast
11:51 PM46.0 °F44.1 °F93 %29.68 in2.0 miWNW (300°)3.5 mph0.01 inOvercast
Hourly data recorded from KNYC, located miles away from New York, New York







STORIES FROM OUR PARTNERS